007  
ASUS41 KLWX 180016  
RWRLWX  
 
REGIONAL WEATHER ROUNDUP LEGACY  
NATIONAL WEATHER SERVICE BALTIMORE MD/WASHINGTON DC  
800 PM EDT WED AUG 17 2022  
 
NOTE: "FAIR" INDICATES FEW OR NO CLOUDS BELOW 12,000 FEET  
WITH NO SIGNIFICANT WEATHER AND/OR S TO VISIBILITY
.  
TC=TEMPERATURE CELSIUS  
 
* =NON NWS SITE. STATION DOES NOT REPORT PRECIPITATION (E.G. RAIN,  
SNOW, ETC.), THUNDER, OR FOG.
 
 
DCZ001-MDZ009-015-VAZ040>042-051-053>054-180100-  
WASHINGTON METRO  
 
CITY SKY/WX TMP DP RH WIND PRES REMARKS
 
WASHINGTON NAT MOCLDY 72 62 71 CALM 29.99R  
DULLES MOCLDY 73 59 61 NE10 29.99R  
ANDREWS AFB MOCLDY 67 63 89 S3 29.96S  
FT BELVOIR MOCLDY 69 63 82 CALM 29.98R  
QUANTICO LGT RAIN 72 61 68 E7 29.99R  
COLLEGE PARK* CLOUDY 69 64 83 SW5 29.99R  
LEESBURG* CLOUDY 70 61 73 NE13 30.03R  
MANASSAS* MOCLDY 71 65 81 S3 29.98R  
GAITHERSBURG* MOCLDY 66 64 93 MISG 30.01S  
 

 
 
MDZ006>007-011-014-180100-  
BALTIMORE METRO  
 
CITY SKY/WX TMP DP RH WIND PRES REMARKS
 
BWI AIRPORT MOCLDY 67 64 90 W3 29.98R  
MARTIN STATE CLEAR 68 64 88 CALM 29.99R  
ANNAPOLIS PTCLDY 72 67 84 NW7 29.98R  
FORT MEADE* CLOUDY 64 64 100 CALM 30.01R  
 

 
 
MDZ012-015-019>023-180100-  
MARYLAND EASTERN SHORE  
 
CITY SKY/WX TMP DP RH WIND PRES REMARKS
 
OCEAN CITY NOT AVBL  
SALISBURY CLEAR 72 60 66 SE5 29.96R  
CAMBRIDGE* CLEAR 72 63 73 CALM 29.96R  
EASTON* PTCLDY 73 72 94 CALM 30.01R  
 

 
 
MDZ017>025-180100-  
SOUTHERN MARYLAND  
 
CITY SKY/WX TMP DP RH WIND PRES REMARKS
 
PATUXENT RIVER LGT RAIN 75 65 70 CALM 29.96R  
ST INIGOES PTCLDY 73 65 75 CALM 29.95R  
LEONARDTOWN* CLOUDY 70 64 83 W7 30.00R  
 

 
 
MDZ003>005-180100-  
NORTH CENTRAL MARYLAND  
 
CITY SKY/WX TMP DP RH WIND PRES REMARKS
 
FREDERICK* CLOUDY 66 63 88 CALM 30.01R  
HAGERSTOWN APT LGT RAIN 67 62 84 E6 30.02F  
WESTMINSTER* PTCLDY 72 59 64 SW6 30.02R  
 

 
 
MDZ501>502-180100-  
WESTERN MARYLAND  
 
CITY SKY/WX TMP DP RH WIND PRES REMARKS
 
OAKLAND* CLOUDY 61 50 67 N3 30.09S  
CUMBERLAND* CLOUDY 71 60 67 N3 30.06R  
 

 
 
VAZ025>031-180100-  
SHENANDOAH VALLEY  
 
CITY SKY/WX TMP DP RH WIND PRES REMARKS
 
WINCHESTER* PTCLDY 70 55 60 NE5G16 30.00R  
FRONT ROYAL* MOCLDY 72 63 73 CALM 30.00R  
LURAY* PTCLDY 70 64 83 CALM 30.00S  
NEW MARKET* CLOUDY 69 67 92 CALM 30.00R  
STAUNTON* CLEAR 67 61 79 CALM 30.04R  
WAYNESBORO* MOCLDY 67 60 79 MISG 30.03R  
 

 
 
WVZ021-048>050-054>055-180100-  
EASTERN WEST VIRGINIA PANHANDLE  
 
CITY SKY/WX TMP DP RH WIND PRES REMARKS
 
MARTINSBURG PTCLDY 67 58 72 NE7 30.01R  
PETERSBURG* PTCLDY 72 57 60 N8 30.03R  
 

 
 
VAZ036>039-050-180100-  
CENTRAL FOOTHILLS  
 
CITY SKY/WX TMP DP RH WIND PRES REMARKS
 
CHARLOTTESVILL CLEAR 73 61 64 CALM 29.98F  
CULPEPER* PTCLDY 73 64 72 CALM 29.99R  
ORANGE* CLEAR 70 64 83 CALM 30.00R  
GORDONSVILLE* NOT AVBL  
WARRENTON* PTCLDY 74 55 51 NE3 29.99R  
 

 
 
VAZ055>057-180100-  
NORTH AND CENTRAL PIEDMONT  
 
CITY SKY/WX TMP DP RH WIND PRES REMARKS
 
FREDERICKSBRG* PTCLDY 78 60 53 CALM 29.96R  
STAFFORD* MOCLDY 77 58 51 N6 30.02R  
 

 
 
NCZ024-NYZ072-PAZ021-071-VAZ022-071-180100-  
OTHER REGIONAL OBSERVATIONS  
 
CITY SKY/WX TMP DP RH WIND PRES REMARKS
 
NEW YORK CITY MOCLDY 76 53 44 W3 29.96S  
PHILADELPHIA PTCLDY 80 59 48 W12 29.95R  
PITTSBURGH MOCLDY 71 59 65 N8 30.03R  
ROANOKE CLEAR 73 57 57 SE5 30.03R  
RICHMOND PTCLDY 74 64 71 CALM 29.97S  
RALEIGH MOCLDY 79 60 52 E5 29.97R  
 

 
 
ANZ530>537-180100-  
MARINE OBSERVATIONS  
 
STATION/POSITION TIME TEMP WIND PRES
 
AIR SEA DIR/SP/G  
(UTC) (F) (DEG/KT/KT) (MB)  
THOMAS PT LIGHT 0000 73 290/ 5/ 7 1016.0R  
TOLCHESTER 2324 73 80 80/ 2/ 5 1014.9  
GOOSES REEF 2348 69 280/ 8/ 16 1015.8R  
COVE POINT 2324 77 230/ 3/ 5 1014.9  
BALT HARBOR 2324 71 80 250/ 4/ 5 1014.5  
BALT KEY BRIDGE 2324 250/ 8/ 9 1014.9  
ANNAPOLIS USNA 2324 72 84 340/ 4/ 8 1014.6  
ANNAPOLIS CBIBS 2348 71 81 310/ 6/ 8 1015.4R  
WASH DC CHANNEL 2324 73 81 160/ 5/ 7 1015.3  
DAHLGREN 2324 76 82 40/ 4/ 9 1014.1  
LEWISETTA 2324 81 80 220/ 1/ 1 1014.7  
SOLOMONS ISLAND 2324 78 82 230/ 2/ 3 1013.1  
PINEY POINT 2324 270/ 2/ 3 N/A  
POTOMAC BUOY 2348 77 80 190/ 2/ 4 N/A  
CAMBRIDGE PIER 2324 78 80 290/ 2/ 3 1014.2  
BISHOPS HEAD 2324 78 80 280/ 5/ 5 1014.6  
CHESAPEAKE CITY 2324 72 80 200/ 2/ 4 1014.8  
 

 
 
 
 
CLICK HERE TO GO TO PREVIOUS BULLETINS.

The Nexlab VA Page
The Nexlab MD Page
The Nexlab WV Page Main Text Page